Location: Bennecourt
(49.0415°N, 1.5547°E)
Time: 15:08:51
(UTC+00:00)

Daily predictions for brighter satellites

Satellite Brightness Start Highest point End
(mag) Time Altitude Azimuth Time Altitude Azimuth Time Altitude Azimuth
IRS-1A Rocket 4.4 20:23:43 10° SSE 20:29:19 69° ENE 20:35:06 10° N
Okean-O 2.9 20:25:14 10° S 20:29:38 74° WSW 20:34:04 10° NNW
ARGOS Delta rocket 4.3 20:25:41 10° S 20:30:19 64° W 20:35:16 10° NNW
Gbstr 26 Del rocket 3.2 20:27:42 10° WSW 20:31:58 89° SSE 20:37:12 10° ENE
Timation 2 Rocket 4.4 20:26:30 10° S 20:32:22 41° ESE 20:38:02 10° NE
CZ-4C R/B 3.3 20:29:45 10° NNE 20:33:23 50° E 20:36:50 10° S
Cosmos 1125 Rocket 4.4 20:30:09 10° SSE 20:34:40 29° E 20:39:11 10° NE
USA 276 1.9 20:36:24 10° WNW 20:39:20 83° SSW 20:42:21 10° ESE
Cosmos 2084 3.6 20:38:43 10° SSW 20:42:39 43° SE 20:46:26 10° NE
SPOT 3 Rocket 4.0 20:39:01 10° SE 20:44:00 49° ENE 20:49:02 10° N
NOSS 2-2 (E) 3.0 20:47:05 10° SSW 20:50:13 45° SE 20:53:14 10° NE
NOSS 2-2 (C) 2.6 20:47:21 10° SW 20:50:33 73° SE 20:53:41 10° NE
In-Cosmos 22 Rocket 4.4 20:47:08 10° S 20:52:45 59° E 20:58:16 10° NNE
Nadezhda 3 Rocket 4.0 20:47:00 10° N 20:53:12 82° E 20:59:21 10° SSE
BREEZE-M DEB (TANK) 3.2 20:51:18 10° W 20:54:01 70° SSW 21:01:08 10° ESE
Cosmos 1544 Rocket 4.5 20:50:28 10° N 20:54:26 33° ENE 20:58:03 12° SE
NOSS 2-3 (E) 3.3 20:52:50 10° SSW 20:56:23 53° SE 21:00:20 10° NE
Cosmos 1844 4.0 20:51:20 10° SW 20:57:08 75° WNW 21:02:56 10° NNE
Terra 1.8 20:53:07 10° SSE 20:57:50 84° ENE 21:02:36 10° NNW
Meteor 1-21 Rocket 4.3 20:58:39 10° SSW 21:04:12 83° WNW 21:09:47 10° N
USA 305 4.1 21:01:24 10° WNW 21:04:58 36° N 21:08:13 10° ENE
GP-B 4.3 21:02:53 10° N 21:07:04 42° W 21:11:13 10° SSW
ATLAS CENTAUR R/B 1.5 21:03:23 10° NW 21:07:20 64° SW 21:10:52 14° SSE
Cosmos 1437 Rocket 3.9 21:07:19 14° SE 21:09:30 24° E 21:12:28 10° NE
Cosmos 1833 Rocket 3.0 21:07:59 10° NNW 21:13:36 59° ENE 21:18:22 14° SE
Meteor 2-1 Rocket 4.2 21:07:58 10° N 21:13:39 86° E 21:18:59 11° SSE
NOSS 2-3 (C) 3.1 21:10:30 10° SW 21:14:07 77° SE 21:18:12 10° NE
Cosmos 1455 Rocket 3.5 21:10:38 10° NNW 21:14:59 59° W 21:19:16 10° S
Cosmos 1975 Rocket 3.1 21:14:11 10° S 21:18:38 88° W 21:23:09 10° N
Cosmos 1025 Rocket 4.2 21:15:06 10° SSW 21:19:09 44° WNW 21:23:15 10° N
Cosmos 44 3.9 21:14:37 10° S 21:19:28 38° ESE 21:24:10 10° NE
Orbus 7S? 3.8 21:17:13 10° WNW 21:19:39 28° SW 21:21:20 16° S
Lacrosse 5 2.5 21:16:34 10° WSW 21:21:34 61° NNW 21:26:36 10° NE
ERS-1 Rocket 3.7 21:18:45 10° S 21:23:37 51° W 21:28:31 10° NNW
Spot 2 Rocket 3.8 21:19:31 10° S 21:24:35 68° WSW 21:29:42 10° NNW
Cosmos 220 Rocket 3.9 21:20:56 10° NNW 21:25:06 79° ENE 21:28:09 18° SSE
Cosmos 2082 Rocket 3.7 21:21:45 10° NNW 21:26:34 28° NE 21:31:19 10° ESE
NOSS 2-2 (D) 2.9 21:24:47 10° SW 21:28:00 73° NW 21:31:10 10° NE
ATLAS 5 CENTAUR R/B 3.3 21:25:11 10° W 21:28:12 29° NW 21:31:36 10° NNE
USA 307 4.0 21:24:30 10° W 21:28:14 40° N 21:31:48 10° ENE
Cosmos 2218 Rocket 4.4 21:23:42 14° SSE 21:28:44 46° E 21:34:35 10° NNE
Landsat 5 4.0 21:26:49 10° NNE 21:31:03 45° E 21:34:10 17° SSE
Cosmos 1844 Rocket 4.2 21:28:10 10° WSW 21:33:21 38° NW 21:38:34 10° NNE
Cosmos 2278 Rocket 3.2 21:31:13 17° SSE 21:34:21 27° ESE 21:39:01 10° NE
Cosmos 1606 2.8 21:31:50 10° NNW 21:35:23 63° W 21:38:05 16° S
MetOp-A 3.8 21:35:02 18° SSE 21:38:21 66° ENE 21:42:39 10° N
Cosmos 2298 Rocket 4.2 21:33:31 10° S 21:38:37 54° ESE 21:43:48 10° NNE
Cosmos 2341 Rocket 4.0 21:33:38 11° S 21:39:38 70° E 21:45:57 10° NNE
Cosmos 614 Rocket 4.1 21:36:03 10° NNW 21:41:07 64° ENE 21:44:35 20° SE
Meteor 1-11 4.5 21:37:08 10° SSW 21:42:51 74° WNW 21:48:33 10° N
H-2A R/B 4.5 21:44:33 10° E 21:46:51 16° ENE 21:49:11 10° NNE
Cosmos 1869 3.9 21:43:29 10° NNW 21:47:12 51° W 21:50:08 15° SSW
CZ-4C R/B 4.1 21:43:55 10° NW 21:49:50 35° NNE 21:57:01 10° E
Cosmos 1536 Rocket 3.7 21:47:10 21° SSE 21:49:52 54° E 21:54:06 10° NNE
Ariane Rocket 3.9 21:47:25 11° S 21:52:03 44° W 21:56:54 10° NNW
ISS -3.0 21:49:49 10° WNW 21:53:05 51° N 21:56:21 10° E
COSMOS 2406 4.4 21:51:08 10° NNW 21:56:19 35° NE 22:00:48 13° ESE
USA 290 3.8 21:58:15 20° E 21:58:15 20° E 22:00:30 10° NE
ARIANE 5 R/B 3.2 21:58:54 22° SE 22:01:22 45° ENE 22:05:39 10° N
GENESIS II 4.2 21:58:31 10° NW 22:02:03 58° SW 22:03:31 31° SSE
BREEZE-M DEB (TANK) 3.7 21:53:28 10° WNW 22:04:06 45° SW 22:06:11 25° SSE
ATLAS 3B R/B 3.7 22:01:26 20° SSE 22:04:38 28° ESE 22:10:49 10° NE
Cosmos 1727 Rocket 4.3 21:58:28 10° N 22:04:45 59° ENE 22:08:48 22° SSE
Cosmos 2228 3.3 22:01:20 10° NNW 22:05:29 60° W 22:08:06 21° S
Geosat 4.3 22:05:04 10° NNE 22:10:04 69° NW 22:15:02 10° SW
Cosmos 1943 Rocket 3.0 22:08:20 24° SSE 22:10:42 33° ESE 22:15:40 10° NE
USA 276 3.5 22:10:49 10° W 22:13:09 23° SW 22:13:09 23° SW
Cosmos 1821 Rocket 4.1 22:09:49 22° SSE 22:13:56 61° E 22:20:13 10° NNE
Gbstr 26 Del rocket 3.9 22:14:13 10° W 22:18:55 64° N 22:24:46 10° E
Cosmos 2058 4.3 22:19:03 21° ESE 22:20:03 23° E 22:23:19 10° NE
Cosmos 2150 Rocket 4.3 22:14:53 10° SSW 22:20:17 74° WNW 22:25:46 10° NNE
ALOS 2 4.0 22:19:19 18° ESE 22:21:34 28° ENE 22:25:19 10° N
Cosmos 2084 Rocket 3.5 22:21:29 10° NW 22:25:27 61° NE 22:27:21 28° ESE
NOSS 3-1 (C) 3.0 22:24:27 13° SSW 22:28:54 72° SE 22:34:47 10° NE
SeaSat 1 3.1 22:26:56 21° ESE 22:30:00 50° NE 22:34:45 10° NNW
Cosmos 1812 2.7 22:32:04 10° N 22:35:34 56° ENE 22:36:28 41° SE
Terra 4.3 22:33:46 10° WSW 22:36:03 13° W 22:38:22 10° WNW
Cosmos 2366 rocket 4.4 22:30:37 12° SSW 22:36:12 58° WNW 22:42:17 10° N
USA 305 3.8 22:34:21 10° WNW 22:37:44 36° N 22:40:34 11° E
Cosmos 1238 Rocket 4.0 22:38:08 10° NNE 22:41:05 27° ENE 22:42:01 24° ESE
Aureole 2 4.0 22:41:11 56° SSW 22:41:46 84° ESE 22:45:09 10° NNE
BREEZE-M R/B 3.8 22:37:47 10° WSW 22:42:06 76° SSE 22:56:29 10° ENE
PSLV R/B 3.9 22:39:37 10° NNE 22:43:36 65° ESE 22:44:50 40° SSE
Cosmos 1437 Rocket 4.5 22:42:04 11° SW 22:45:02 26° WNW 22:48:09 10° N
Cosmos 1892 Rocket 3.7 22:45:05 37° SSE 22:46:43 63° E 22:51:08 10° NNE
Cosmos 1140 Rocket 3.8 22:47:11 10° NNW 22:52:16 58° ENE 22:54:48 28° SE
Cosmos 1833 Rocket 4.2 22:52:33 10° NW 22:57:08 26° WSW 23:00:03 17° SW
MINOTAUR 4 R/B 3.5 22:54:22 10° NNE 22:57:02 62° E 22:57:02 62° E
Cosmos 2239 Rocket 4.4 22:55:30 27° S 22:59:04 88° E 23:05:22 10° N
SL-08 R/B 4.4 22:57:34 27° S 23:01:03 90° SE 23:07:13 10° N
BREEZE-M DEB (TANK) 3.5 22:58:28 10° W 23:01:20 80° SSW 23:09:00 10° ESE
USA 307 3.7 22:58:18 10° WNW 23:01:59 43° N 23:05:21 10° E
Cosmos-2242 4.0 23:00:32 10° N 23:04:27 36° ENE 23:05:51 28° ESE
Cosmos 2123 Rocket 4.0 22:58:18 10° N 23:04:37 78° E 23:07:51 31° SSE
CENTAUR R/B 4.5 22:58:16 10° NW 23:05:17 37° NNE 23:13:24 10° E
Lacrosse 5 3.6 23:00:42 10° WNW 23:05:18 34° N 23:09:55 10° ENE
Cosmos 1606 Rocket 4.4 23:01:15 10° NNW 23:05:19 41° W 23:07:01 28° SW
NOSS 3-1 (A) 3.0 23:03:57 31° SSW 23:06:20 64° SE 23:12:12 10° NE
Cosmos 1726 Rocket 4.0 23:03:20 10° NNW 23:07:34 52° W 23:09:05 34° SSW
NOSS 8 (F) 4.2 23:05:28 10° NW 23:08:33 89° SW 23:09:06 61° SE
Cosmos 2082 Rocket 2.3 23:05:31 10° NNW 23:11:05 65° WSW 23:13:28 34° S
Cosmos 1515 4.3 23:11:07 10° N 23:14:23 38° ENE 23:14:57 35° E
Cosmos 2278 Rocket 2.7 23:12:59 12° SW 23:18:04 57° WNW 23:23:41 10° NNE
ULPM Upper Stage 2.7 23:15:25 10° NW 23:19:47 75° SW 23:20:59 46° SSE
Cosmos 2369 Rocket 3.5 23:19:37 22° ESE 23:20:56 24° ESE 23:25:19 10° NE
PSLV R/B 4.1 23:17:09 10° NNE 23:21:19 44° E 23:22:20 37° SE
H-2A R/B 2.5 23:20:31 45° SSW 23:21:23 57° WSW 23:25:11 10° NNW
Cosmos 489 Rocket 4.4 23:24:25 32° S 23:27:21 70° ESE 23:33:33 10° NNE
ISS -3.9 23:26:41 10° WNW 23:30:01 87° SSW 23:30:09 81° SE
USA 290 4.0 23:30:56 20° W 23:32:20 27° WNW 23:35:08 10° N
Cosmos 2058 Rocket 3.4 23:29:08 10° NNW 23:33:22 53° W 23:34:37 39° SW
Cosmos 1782 2.6 23:30:05 10° N 23:33:55 76° E 23:34:35 57° SSE
USA 229 DEB 4.1 23:32:18 32° SSE 23:34:12 39° ESE 23:40:19 10° NE
USA 229 4.1 23:32:27 32° SSE 23:34:20 39° ESE 23:40:26 10° NE
Cosmos 1862 4.2 23:35:38 32° ESE 23:36:08 33° E 23:39:37 10° NNE
CRYOSAT 2 4.3 23:31:18 10° N 23:36:13 87° E 23:37:58 41° S
ARIANE 5 R/B 4.3 23:36:22 18° WSW 23:37:58 22° W 23:41:29 10° NW
Cosmos 1378 3.0 23:34:47 10° N 23:37:59 57° ENE 23:38:06 56° E
Cosmos 482 Debris 4.4 23:33:47 10° W 23:38:22 69° NNW 23:41:42 10° ENE
CZ-4C R/B 3.0 23:32:07 10° NW 23:39:09 87° NE 23:45:35 19° SE
COSMOS 2455 4.2 23:34:19 10° NNW 23:39:55 37° NE 23:45:28 10° ESE
Meteor 2-2 Rocket 4.3 23:35:03 10° N 23:40:48 81° ENE 23:43:24 35° SSE
COSMOS 2406 3.6 23:35:21 10° NW 23:40:48 49° WSW 23:42:50 34° SSW
Cosmos 1934 Rocket 4.1 23:39:12 29° SSW 23:42:33 72° W 23:48:48 10° N
Cosmos 2221 4.0 23:41:23 10° N 23:45:04 28° ENE 23:46:52 21° ESE
Cosmos 2285 Rocket 4.2 23:45:24 10° NNW 23:51:51 72° ENE 23:55:34 27° SE
Cosmos 1943 Rocket 3.0 23:49:48 15° SW 23:54:15 48° NW 23:59:43 10° NNE
